INMARSAT 3-F3

Last updated on Mon Oct 14 2024 00:02:37 GMT+0000 (Coordinated Universal Time)

1 24674U 96070A 24287.25180333 -.00000274 00000+0 00000+0 0 9995 2 24674 8.9830 55.2050 0008046 158.4200 200.3882 0.99993698101780
UTC large
Height (km)
Speed (km/s)
/
Latitude / Longitude
Inclination (degrees)
Orbital Period (minutes)
Azimuth
Elevation
Range (km)
Doppler Factor

Next 0 passes for location: London (51.5072 / 0.1276)

Sorry there are no passes over London.